Content
SEND FEEDBACK

Daily
Averages
Monthly
Summary
United Kingdom

INVERNESS, SCOTLAND


Home > Europe > United Kingdom > Scotland
Elevation: 30 feet     Latitude: 57 32N     Longitude: 004 03W

WEATHER
 
SELECT A DAY
Number of Records: 234,038;   Date Range: 7/1/96 - 10/22/14
 
SHARE

PRINT THIS DATA

[ ← Previous Day ]
WEATHER ALMANAC - APRIL 7, 2013
[ Next Day → ]
[ °C ]   °F
Weather ElementAverageHighLow
Temperature34.3 °F37.4 °F (11:20 am)32 °F (1:20 am)
Dewpoint33.3 °F35.6 °F (11:50 am)32 °F (12:50 am)
Humidity96.1 %100 % (1:20 am)87 % (11:20 am)
Barometer30.14 in30.21 in (12:50 am)30.04 in (11:50 pm)
Wind Speed7.4 mph13.8 mph (5:50 pm)
Weather ElementAverage
Visibility4.3 mi
Wind DirectionENE (71.7 °)

Weather ElementTotal
Precipitation---
Heating Degree Days30.3 (Base 65)
Averaged from 47 records on April 7, 2013
WEATHER CONDITIONS BREAKOUT
WIND DIRECTION BREAKOUT
WEATHER BY HOUR - APRIL 7, 2013
[ °C ]   °F
Local TimeTemperatureDewpointHumidityBarometerVisibilityWind DirectionWind SpeedGust SpeedPrecipitationEventsConditions
12:50 AM33.8 °F32.0 °F93 %30.21 in6.2 miENE (60°)3.5 mphRainLight Rain
1:20 AM32.0 °F32.0 °F100 %30.21 in1.4 miNE (40°)4.6 mphSnowLight Snow
1:50 AM32.0 °F32.0 °F100 %30.21 in1.0 miENE (70°)5.8 mphSnowLight Snow
2:20 AM32.0 °F32.0 °F100 %30.21 in1.6 miEast (90°)3.5 mphSnowLight Snow
2:50 AM32.0 °F32.0 °F100 %30.21 inEast (80°)3.5 mphSnowLight Snow
3:20 AM32.0 °F32.0 °F100 %30.18 in5.0 miENE (70°)3.5 mphSnowLight Snow
3:50 AM32.0 °F32.0 °F100 %30.18 in5.6 miEast (90°)4.6 mphSnowSnow Grains
4:20 AM32.0 °F32.0 °F100 %30.18 in1.6 miENE (70°)3.5 mphSnowLight Snow
4:50 AM32.0 °F32.0 °F100 %30.18 in1.2 miNE (50°)3.5 mphSnowLight Snow
5:20 AM32.0 °F32.0 °F100 %30.18 in1.4 miENE (70°)3.5 mphSnowLight Snow
5:50 AM32.0 °F32.0 °F100 %30.18 in1.4 miENE (70°)6.9 mphSnowLight Snow
6:20 AM32.0 °F32.0 °F100 %30.18 in3.1 miENE (70°)5.8 mphSnowLight Snow
6:50 AM32.0 °F32.0 °F100 %30.18 in3.1 miENE (70°)4.6 mphSnowLight Snow
7:20 AM32.0 °F32.0 °F100 %30.18 in3.1 miEast (90°)4.6 mphSnowLight Snow
7:50 AM32.0 °F32.0 °F100 %30.18 in3.1 miEast (80°)4.6 mphSnowLight Snow
8:20 AM32.0 °F32.0 °F100 %30.18 in2.2 miEast (90°)4.6 mphSnowSnow
8:50 AM32.0 °F32.0 °F100 %30.18 in3.1 miEast (100°)3.5 mphSnowLight Snow
9:20 AM33.8 °F32.0 °F93 %30.18 in2.5 miENE (60°)3.5 mphSnowSnow
9:50 AM33.8 °F33.8 °F100 %30.18 in3.7 miEast (100°)4.6 mphSnowSnow
10:20 AM35.6 °F33.8 °F93 %30.18 in6.2 miEast (80°)5.8 mphScattered Clouds
10:50 AM35.6 °F33.8 °F93 %30.18 in6.2 miEast (80°)6.9 mphMostly Cloudy
11:20 AM37.4 °F33.8 °F87 %30.18 in3.7 miEast (100°)8.1 mphSnowLight Snow
11:50 AM35.6 °F35.6 °F100 %30.18 in4.3 miNE (40°)5.8 mphSnowLight Snow
12:20 PM35.6 °F35.6 °F100 %30.15 in6.2 miNE (50°)6.9 mphMostly Cloudy
12:50 PM35.6 °F35.6 °F100 %30.15 in4.3 miNE (40°)5.8 mphSnowLight Snow Showers
1:20 PM37.4 °F35.6 °F93 %30.15 in3.7 miNNE (30°)8.1 mphRain-SnowLight Rain
1:50 PM37.4 °F35.6 °F93 %30.12 in4.3 miENE (70°)9.2 mphRain-SnowLight Rain
2:20 PM37.4 °F33.8 °F87 %30.12 in5.0 miEast (90°)8.1 mphRain-SnowLight Rain
2:50 PM37.4 °F33.8 °F87 %30.12 in5.0 miEast (90°)8.1 mphRainRain
3:20 PM37.4 °F33.8 °F87 %30.12 in4.3 miENE (60°)9.2 mphRainRain
3:50 PM37.4 °F35.6 °F93 %30.12 in4.3 miEast (90°)8.1 mphRain-SnowLight Rain
4:20 PM37.4 °F33.8 °F87 %30.09 in5.0 miEast (80°)8.1 mphRain-SnowLight Rain
4:50 PM37.4 °F33.8 °F87 %30.09 in5.0 miEast (80°)8.1 mphRainLight Rain
5:20 PM37.4 °F35.6 °F93 %30.09 in6.2 miENE (70°)9.2 mphRainLight Rain
5:50 PM35.6 °F35.6 °F100 %30.09 in4.3 miENE (70°)13.8 mphRainLight Rain
6:20 PM35.6 °F35.6 °F100 %30.09 in4.3 miENE (70°)10.4 mphRainLight Rain
6:50 PM35.6 °F35.6 °F100 %30.06 in5.0 miENE (70°)12.7 mphRainLight Rain
7:20 PM35.6 °F33.8 °F93 %30.06 in5.6 miENE (60°)12.7 mphRainLight Rain
7:50 PM35.6 °F33.8 °F93 %30.06 in5.6 miENE (70°)12.7 mphRain-SnowLight Rain
8:20 PM33.8 °F33.8 °F100 %30.06 in5.6 miENE (70°)11.5 mphRain-SnowLight Rain
8:50 PM33.8 °F33.8 °F100 %30.06 in6.2 miENE (70°)11.5 mphMostly Cloudy
9:20 PM33.8 °F33.8 °F100 %30.06 in6.2 miENE (70°)10.4 mphRainLight Rain
9:50 PM33.8 °F32.0 °F93 %30.06 in6.2 miENE (70°)11.5 mphRainLight Rain
10:20 PM33.8 °F32.0 °F93 %30.06 in6.2 miENE (70°)10.4 mphSnowLight Snow
10:50 PM33.8 °F32.0 °F93 %30.06 in6.2 miENE (70°)10.4 mphSnowSnow Grains
11:20 PM33.8 °F32.0 °F93 %30.06 in6.2 miENE (70°)10.4 mphOvercast
11:50 PM33.8 °F32.0 °F93 %30.04 in6.2 miENE (70°)10.4 mph
Hourly data recorded from EGPE, located miles away from Inverness, Scotland







STORIES FROM OUR PARTNERS